User: anonymous   Login
Location: Unspecified
(0.0000°N, 0.0000°E)
Time: 00:57:35
(UTC+00:00)
Language:

STARLINK-6313 - Orbit

View from above orbital plane
View from above orbital plane
View from above satellite
View from above satellite

Ground track
Ground track

The orbit is defined by the following mean orbital elements,

1 56519U          26145.36218613 +.00000000 +00000-0 +16645-4 0 00003
2 56519  43.0033 139.6481 0001187 314.5166  45.5589 15.27575869    07
Epoch (UTC): 25 May 2026 08:41:32
Eccentricity: 0.0001187
inclination: 43.0033°
perigee height: 482 km
apogee height: 484 km
right ascension of ascending node: 139.6481°
argument of perigee: 314.5166°
revolutions per day: 15.27575869
mean anomaly at epoch: 45.5589°

The dashed part of the orbit path shows where the satellite is in the earth's shadow,  

DLR